CYGFM01

Last updated on Sun Apr 12 2026 00:02:27 GMT+0000 (Coordinated Universal Time)

1 41887U 16078D 26101.37157154 .00018248 00000+0 26850-3 0 9999 2 41887 34.9418 343.6225 0007701 243.9214 116.0717 15.54460090518296
UTC large
Height (km)
Speed (km/s)
/
Latitude / Longitude
Inclination (degrees)
Orbital Period (minutes)
Azimuth
Elevation
Range (km)
Doppler Factor

Next 0 passes for location: London (51.5072 / 0.1276)

Sorry there are no passes over London.
CYGFM01